owner,sensor,date,latitude,longitude,vertical_datum,sea_water_practical_salinity,qcFlag 
WAVCIS,ioos:station:WAVCIS:CSI16:2,2009-10-01T00:00:00Z,29.4012,-89.0355,1.0,28.915,11111222 
WAVCIS,ioos:station:WAVCIS:CSI16:2,2009-10-01T00:15:00Z,29.4012,-89.0355,1.0,28.858,11111222 
WAVCIS,ioos:station:WAVCIS:CSI16:2,2009-10-01T00:30:00Z,29.4012,-89.0355,1.0,28.886,11111222 
WAVCIS,ioos:station:WAVCIS:CSI16:2,2009-10-01T00:45:00Z,29.4012,-89.0355,1.0,28.892,11111222 
WAVCIS,ioos:station:WAVCIS:CSI16:2,2009-10-01T01:00:00Z,29.4012,-89.0355,1.0,28.896,11111222 
WAVCIS,ioos:station:WAVCIS:CSI16:2,2009-10-01T01:15:00Z,29.4012,-89.0355,1.0,28.907,11111222 
WAVCIS,ioos:station:WAVCIS:CSI16:2,2009-10-01T01:30:00Z,29.4012,-89.0355,1.0,28.912,11111222 
WAVCIS,ioos:station:WAVCIS:CSI16:2,2009-10-01T01:45:00Z,29.4012,-89.0355,1.0,28.923,11111222 
WAVCIS,ioos:station:WAVCIS:CSI16:2,2009-10-01T02:00:00Z,29.4012,-89.0355,1.0,28.933,11111222 
WAVCIS,ioos:station:WAVCIS:CSI16:2,2009-10-01T02:15:00Z,29.4012,-89.0355,1.0,28.95,11111222 
WAVCIS,ioos:station:WAVCIS:CSI16:2,2009-10-01T02:30:00Z,29.4012,-89.0355,1.0,29.032,11111222 
WAVCIS,ioos:station:WAVCIS:CSI16:2,2009-10-01T02:45:00Z,29.4012,-89.0355,1.0,29.061,11111222 
WAVCIS,ioos:station:WAVCIS:CSI16:2,2009-10-01T03:00:00Z,29.4012,-89.0355,1.0,29.076,11111222 
WAVCIS,ioos:station:WAVCIS:CSI16:2,2009-10-01T03:15:00Z,29.4012,-89.0355,1.0,29.075,11111222 
WAVCIS,ioos:station:WAVCIS:CSI16:2,2009-10-01T03:30:00Z,29.4012,-89.0355,1.0,29.082,11111222 
WAVCIS,ioos:station:WAVCIS:CSI16:2,2009-10-01T03:45:00Z,29.4012,-89.0355,1.0,29.096,11111222 
WAVCIS,ioos:station:WAVCIS:CSI16:2,2009-10-01T04:00:00Z,29.4012,-89.0355,1.0,29.1,11111222 
WAVCIS,ioos:station:WAVCIS:CSI16:2,2009-10-01T04:15:00Z,29.4012,-89.0355,1.0,29.105,11111222 
WAVCIS,ioos:station:WAVCIS:CSI16:2,2009-10-01T04:30:00Z,29.4012,-89.0355,1.0,29.118,11111222 
WAVCIS,ioos:station:WAVCIS:CSI16:2,2009-10-01T04:45:00Z,29.4012,-89.0355,1.0,29.141,11111222 
WAVCIS,ioos:station:WAVCIS:CSI16:2,2009-10-01T05:00:00Z,29.4012,-89.0355,1.0,29.16,11111222 
WAVCIS,ioos:station:WAVCIS:CSI16:2,2009-10-01T05:15:00Z,29.4012,-89.0355,1.0,29.172,11111222 
WAVCIS,ioos:station:WAVCIS:CSI16:2,2009-10-01T05:30:00Z,29.4012,-89.0355,1.0,29.173,11111222 
WAVCIS,ioos:station:WAVCIS:CSI16:2,2009-10-01T05:45:00Z,29.4012,-89.0355,1.0,29.183,11111222 
WAVCIS,ioos:station:WAVCIS:CSI16:2,2009-10-01T06:00:00Z,29.4012,-89.0355,1.0,29.208,11111222 
WAVCIS,ioos:station:WAVCIS:CSI16:2,2009-10-01T06:15:00Z,29.4012,-89.0355,1.0,29.218,11111222 
WAVCIS,ioos:station:WAVCIS:CSI16:2,2009-10-01T06:30:00Z,29.4012,-89.0355,1.0,29.218,11111222 
WAVCIS,ioos:station:WAVCIS:CSI16:2,2009-10-01T06:45:00Z,29.4012,-89.0355,1.0,29.22,11111222 
WAVCIS,ioos:station:WAVCIS:CSI16:2,2009-10-01T07:00:00Z,29.4012,-89.0355,1.0,29.225,11111222 
WAVCIS,ioos:station:WAVCIS:CSI16:2,2009-10-01T07:15:00Z,29.4012,-89.0355,1.0,29.226,11111222 
WAVCIS,ioos:station:WAVCIS:CSI16:2,2009-10-01T07:30:00Z,29.4012,-89.0355,1.0,29.232,11111222 
WAVCIS,ioos:station:WAVCIS:CSI16:2,2009-10-01T07:45:00Z,29.4012,-89.0355,1.0,29.23,11111222 
WAVCIS,ioos:station:WAVCIS:CSI16:2,2009-10-01T08:00:00Z,29.4012,-89.0355,1.0,29.244,11111222 
WAVCIS,ioos:station:WAVCIS:CSI16:2,2009-10-01T08:15:00Z,29.4012,-89.0355,1.0,29.238,11111222 
WAVCIS,ioos:station:WAVCIS:CSI16:2,2009-10-01T08:30:00Z,29.4012,-89.0355,1.0,29.246,11111222 
WAVCIS,ioos:station:WAVCIS:CSI16:2,2009-10-01T08:45:00Z,29.4012,-89.0355,1.0,29.235,11111222 
WAVCIS,ioos:station:WAVCIS:CSI16:2,2009-10-01T09:00:00Z,29.4012,-89.0355,1.0,29.237,11111222 
WAVCIS,ioos:station:WAVCIS:CSI16:2,2009-10-01T09:15:00Z,29.4012,-89.0355,1.0,29.241,11111222 
WAVCIS,ioos:station:WAVCIS:CSI16:2,2009-10-01T09:30:00Z,29.4012,-89.0355,1.0,29.227,11111222 
WAVCIS,ioos:station:WAVCIS:CSI16:2,2009-10-01T09:45:00Z,29.4012,-89.0355,1.0,29.244,11111222 
WAVCIS,ioos:station:WAVCIS:CSI16:2,2009-10-01T10:00:00Z,29.4012,-89.0355,1.0,29.228,11111222 
WAVCIS,ioos:station:WAVCIS:CSI16:2,2009-10-01T10:15:00Z,29.4012,-89.0355,1.0,29.218,11111222 
WAVCIS,ioos:station:WAVCIS:CSI16:2,2009-10-01T10:30:00Z,29.4012,-89.0355,1.0,29.226,11111222 
WAVCIS,ioos:station:WAVCIS:CSI16:2,2009-10-01T10:45:00Z,29.4012,-89.0355,1.0,29.236,11111222 
WAVCIS,ioos:station:WAVCIS:CSI16:2,2009-10-01T11:00:00Z,29.4012,-89.0355,1.0,29.238,11111222 
WAVCIS,ioos:station:WAVCIS:CSI16:2,2009-10-01T11:15:00Z,29.4012,-89.0355,1.0,29.253,11111222 
WAVCIS,ioos:station:WAVCIS:CSI16:2,2009-10-01T11:30:00Z,29.4012,-89.0355,1.0,29.266,11111222 
WAVCIS,ioos:station:WAVCIS:CSI16:2,2009-10-01T11:45:00Z,29.4012,-89.0355,1.0,29.264,11111222 
WAVCIS,ioos:station:WAVCIS:CSI16:2,2009-10-01T12:00:00Z,29.4012,-89.0355,1.0,29.296,11111222 
WAVCIS,ioos:station:WAVCIS:CSI16:2,2009-10-01T12:15:00Z,29.4012,-89.0355,1.0,29.31,11111222 
WAVCIS,ioos:station:WAVCIS:CSI16:2,2009-10-01T12:30:00Z,29.4012,-89.0355,1.0,29.315,11111222 
WAVCIS,ioos:station:WAVCIS:CSI16:2,2009-10-01T12:45:00Z,29.4012,-89.0355,1.0,29.284,11111222 
WAVCIS,ioos:station:WAVCIS:CSI16:2,2009-10-01T13:00:00Z,29.4012,-89.0355,1.0,29.286,11111222 
WAVCIS,ioos:station:WAVCIS:CSI16:2,2009-10-01T13:15:00Z,29.4012,-89.0355,1.0,29.274,11111222 
WAVCIS,ioos:station:WAVCIS:CSI16:2,2009-10-01T13:30:00Z,29.4012,-89.0355,1.0,29.288,11111222 
WAVCIS,ioos:station:WAVCIS:CSI16:2,2009-10-01T13:45:00Z,29.4012,-89.0355,1.0,29.278,11111222 
WAVCIS,ioos:station:WAVCIS:CSI16:2,2009-10-01T14:00:00Z,29.4012,-89.0355,1.0,29.286,11111222 
WAVCIS,ioos:station:WAVCIS:CSI16:2,2009-10-01T14:15:00Z,29.4012,-89.0355,1.0,29.286,11111222 
WAVCIS,ioos:station:WAVCIS:CSI16:2,2009-10-01T14:30:00Z,29.4012,-89.0355,1.0,29.295,11111222 
WAVCIS,ioos:station:WAVCIS:CSI16:2,2009-10-01T14:45:00Z,29.4012,-89.0355,1.0,29.292,11111222 
WAVCIS,ioos:station:WAVCIS:CSI16:2,2009-10-01T15:00:00Z,29.4012,-89.0355,1.0,29.292,11111222 
WAVCIS,ioos:station:WAVCIS:CSI16:2,2009-10-01T15:15:00Z,29.4012,-89.0355,1.0,29.297,11111222 
WAVCIS,ioos:station:WAVCIS:CSI16:2,2009-10-01T15:30:00Z,29.4012,-89.0355,1.0,29.3,11111222 
WAVCIS,ioos:station:WAVCIS:CSI16:2,2009-10-01T15:45:00Z,29.4012,-89.0355,1.0,29.302,11111222 
WAVCIS,ioos:station:WAVCIS:CSI16:2,2009-10-01T16:00:00Z,29.4012,-89.0355,1.0,29.306,11111222 
WAVCIS,ioos:station:WAVCIS:CSI16:2,2009-10-01T16:15:00Z,29.4012,-89.0355,1.0,29.299,11111222 
WAVCIS,ioos:station:WAVCIS:CSI16:2,2009-10-01T16:30:00Z,29.4012,-89.0355,1.0,29.3,11111222 
WAVCIS,ioos:station:WAVCIS:CSI16:2,2009-10-01T16:45:00Z,29.4012,-89.0355,1.0,29.302,11111222 
WAVCIS,ioos:station:WAVCIS:CSI16:2,2009-10-01T17:00:00Z,29.4012,-89.0355,1.0,29.302,11111222 
WAVCIS,ioos:station:WAVCIS:CSI16:2,2009-10-01T17:15:00Z,29.4012,-89.0355,1.0,29.303,11111222 
WAVCIS,ioos:station:WAVCIS:CSI16:2,2009-10-01T17:30:00Z,29.4012,-89.0355,1.0,29.301,11111222 
WAVCIS,ioos:station:WAVCIS:CSI16:2,2009-10-01T17:45:00Z,29.4012,-89.0355,1.0,29.304,11111222 
WAVCIS,ioos:station:WAVCIS:CSI16:2,2009-10-01T18:00:00Z,29.4012,-89.0355,1.0,29.302,11111222 
WAVCIS,ioos:station:WAVCIS:CSI16:2,2009-10-01T18:15:00Z,29.4012,-89.0355,1.0,29.301,11111222 
WAVCIS,ioos:station:WAVCIS:CSI16:2,2009-10-01T18:30:00Z,29.4012,-89.0355,1.0,29.304,11111222 
WAVCIS,ioos:station:WAVCIS:CSI16:2,2009-10-01T18:45:00Z,29.4012,-89.0355,1.0,29.302,11111222 
WAVCIS,ioos:station:WAVCIS:CSI16:2,2009-10-01T19:00:00Z,29.4012,-89.0355,1.0,29.304,11111222 
WAVCIS,ioos:station:WAVCIS:CSI16:2,2009-10-01T19:15:00Z,29.4012,-89.0355,1.0,29.3,11111222 
WAVCIS,ioos:station:WAVCIS:CSI16:2,2009-10-01T19:30:00Z,29.4012,-89.0355,1.0,29.295,11111222 
WAVCIS,ioos:station:WAVCIS:CSI16:2,2009-10-01T19:45:00Z,29.4012,-89.0355,1.0,29.295,11111222 
WAVCIS,ioos:station:WAVCIS:CSI16:2,2009-10-01T20:00:00Z,29.4012,-89.0355,1.0,29.289,11111222 
WAVCIS,ioos:station:WAVCIS:CSI16:2,2009-10-01T20:15:00Z,29.4012,-89.0355,1.0,29.28,11111222 
WAVCIS,ioos:station:WAVCIS:CSI16:2,2009-10-01T20:30:00Z,29.4012,-89.0355,1.0,29.275,11111222 
WAVCIS,ioos:station:WAVCIS:CSI16:2,2009-10-01T20:45:00Z,29.4012,-89.0355,1.0,29.269,11111222 
WAVCIS,ioos:station:WAVCIS:CSI16:2,2009-10-01T21:00:00Z,29.4012,-89.0355,1.0,29.27,11111222 
WAVCIS,ioos:station:WAVCIS:CSI16:2,2009-10-01T21:15:00Z,29.4012,-89.0355,1.0,29.269,11111222 
WAVCIS,ioos:station:WAVCIS:CSI16:2,2009-10-01T21:30:00Z,29.4012,-89.0355,1.0,29.264,11111222 
WAVCIS,ioos:station:WAVCIS:CSI16:2,2009-10-01T21:45:00Z,29.4012,-89.0355,1.0,29.262,11111222 
WAVCIS,ioos:station:WAVCIS:CSI16:2,2009-10-01T22:00:00Z,29.4012,-89.0355,1.0,29.262,11111222 
WAVCIS,ioos:station:WAVCIS:CSI16:2,2009-10-01T22:15:00Z,29.4012,-89.0355,1.0,29.265,11111222 
WAVCIS,ioos:station:WAVCIS:CSI16:2,2009-10-01T22:30:00Z,29.4012,-89.0355,1.0,29.264,11111222 
WAVCIS,ioos:station:WAVCIS:CSI16:2,2009-10-01T22:45:00Z,29.4012,-89.0355,1.0,29.261,11111222 
WAVCIS,ioos:station:WAVCIS:CSI16:2,2009-10-01T23:00:00Z,29.4012,-89.0355,1.0,29.254,11111222 
WAVCIS,ioos:station:WAVCIS:CSI16:2,2009-10-01T23:15:00Z,29.4012,-89.0355,1.0,29.236,11111222 
WAVCIS,ioos:station:WAVCIS:CSI16:2,2009-10-01T23:30:00Z,29.4012,-89.0355,1.0,29.236,11111222 
WAVCIS,ioos:station:WAVCIS:CSI16:2,2009-10-01T23:45:00Z,29.4012,-89.0355,1.0,29.232,11111222 
WAVCIS,ioos:station:WAVCIS:CSI16:2,2009-10-02T00:00:00Z,29.4012,-89.0355,1.0,29.228,11111222 
WAVCIS,ioos:station:WAVCIS:CSI16:2,2009-10-02T00:15:00Z,29.4012,-89.0355,1.0,29.252,11111222 
WAVCIS,ioos:station:WAVCIS:CSI16:2,2009-10-02T00:30:00Z,29.4012,-89.0355,1.0,29.268,11111222 
WAVCIS,ioos:station:WAVCIS:CSI16:2,2009-10-02T00:45:00Z,29.4012,-89.0355,1.0,29.278,11111222 
WAVCIS,ioos:station:WAVCIS:CSI16:2,2009-10-02T01:00:00Z,29.4012,-89.0355,1.0,29.263,11111222 
WAVCIS,ioos:station:WAVCIS:CSI16:2,2009-10-02T01:15:00Z,29.4012,-89.0355,1.0,29.275,11111222 
WAVCIS,ioos:station:WAVCIS:CSI16:2,2009-10-02T01:30:00Z,29.4012,-89.0355,1.0,29.266,11111222 
WAVCIS,ioos:station:WAVCIS:CSI16:2,2009-10-02T01:45:00Z,29.4012,-89.0355,1.0,29.267,11111222 
WAVCIS,ioos:station:WAVCIS:CSI16:2,2009-10-02T02:00:00Z,29.4012,-89.0355,1.0,29.264,11111222 
WAVCIS,ioos:station:WAVCIS:CSI16:2,2009-10-02T02:15:00Z,29.4012,-89.0355,1.0,29.262,11111222 
WAVCIS,ioos:station:WAVCIS:CSI16:2,2009-10-02T02:30:00Z,29.4012,-89.0355,1.0,29.272,11111222 
WAVCIS,ioos:station:WAVCIS:CSI16:2,2009-10-02T02:45:00Z,29.4012,-89.0355,1.0,29.269,11111222 
WAVCIS,ioos:station:WAVCIS:CSI16:2,2009-10-02T03:00:00Z,29.4012,-89.0355,1.0,29.272,11111222 
WAVCIS,ioos:station:WAVCIS:CSI16:2,2009-10-02T03:15:00Z,29.4012,-89.0355,1.0,29.277,11111222 
WAVCIS,ioos:station:WAVCIS:CSI16:2,2009-10-02T03:30:00Z,29.4012,-89.0355,1.0,29.273,11111222 
WAVCIS,ioos:station:WAVCIS:CSI16:2,2009-10-02T03:45:00Z,29.4012,-89.0355,1.0,29.278,11111222 
WAVCIS,ioos:station:WAVCIS:CSI16:2,2009-10-02T04:00:00Z,29.4012,-89.0355,1.0,29.277,11111222 
WAVCIS,ioos:station:WAVCIS:CSI16:2,2009-10-02T04:15:00Z,29.4012,-89.0355,1.0,29.281,11111222 
WAVCIS,ioos:station:WAVCIS:CSI16:2,2009-10-02T04:30:00Z,29.4012,-89.0355,1.0,29.284,11111222 
WAVCIS,ioos:station:WAVCIS:CSI16:2,2009-10-02T04:45:00Z,29.4012,-89.0355,1.0,29.285,11111222 
WAVCIS,ioos:station:WAVCIS:CSI16:2,2009-10-02T05:00:00Z,29.4012,-89.0355,1.0,29.293,11111222 
WAVCIS,ioos:station:WAVCIS:CSI16:2,2009-10-02T05:15:00Z,29.4012,-89.0355,1.0,29.305,11111222 
WAVCIS,ioos:station:WAVCIS:CSI16:2,2009-10-02T05:30:00Z,29.4012,-89.0355,1.0,29.326,11111222 
WAVCIS,ioos:station:WAVCIS:CSI16:2,2009-10-02T05:45:00Z,29.4012,-89.0355,1.0,29.325,11111222 
WAVCIS,ioos:station:WAVCIS:CSI16:2,2009-10-02T06:00:00Z,29.4012,-89.0355,1.0,29.328,11111222 
WAVCIS,ioos:station:WAVCIS:CSI16:2,2009-10-02T06:15:00Z,29.4012,-89.0355,1.0,29.342,11111222 
WAVCIS,ioos:station:WAVCIS:CSI16:2,2009-10-02T06:30:00Z,29.4012,-89.0355,1.0,29.332,11111222 
WAVCIS,ioos:station:WAVCIS:CSI16:2,2009-10-02T06:45:00Z,29.4012,-89.0355,1.0,29.309,11111222 
WAVCIS,ioos:station:WAVCIS:CSI16:2,2009-10-02T07:00:00Z,29.4012,-89.0355,1.0,29.29,11111222 
WAVCIS,ioos:station:WAVCIS:CSI16:2,2009-10-02T07:15:00Z,29.4012,-89.0355,1.0,29.273,11111222 
WAVCIS,ioos:station:WAVCIS:CSI16:2,2009-10-02T07:30:00Z,29.4012,-89.0355,1.0,29.295,11111222 
WAVCIS,ioos:station:WAVCIS:CSI16:2,2009-10-02T07:45:00Z,29.4012,-89.0355,1.0,29.269,11111222 
WAVCIS,ioos:station:WAVCIS:CSI16:2,2009-10-02T08:00:00Z,29.4012,-89.0355,1.0,29.292,11111222 
WAVCIS,ioos:station:WAVCIS:CSI16:2,2009-10-02T08:15:00Z,29.4012,-89.0355,1.0,29.299,11111222 
WAVCIS,ioos:station:WAVCIS:CSI16:2,2009-10-02T08:30:00Z,29.4012,-89.0355,1.0,29.274,11111222 
WAVCIS,ioos:station:WAVCIS:CSI16:2,2009-10-02T08:45:00Z,29.4012,-89.0355,1.0,29.294,11111222 
WAVCIS,ioos:station:WAVCIS:CSI16:2,2009-10-02T09:00:00Z,29.4012,-89.0355,1.0,29.319,11111222 
WAVCIS,ioos:station:WAVCIS:CSI16:2,2009-10-02T09:15:00Z,29.4012,-89.0355,1.0,29.316,11111222 
WAVCIS,ioos:station:WAVCIS:CSI16:2,2009-10-02T09:30:00Z,29.4012,-89.0355,1.0,29.306,11111222 
WAVCIS,ioos:station:WAVCIS:CSI16:2,2009-10-02T09:45:00Z,29.4012,-89.0355,1.0,29.294,11111222 
WAVCIS,ioos:station:WAVCIS:CSI16:2,2009-10-02T10:00:00Z,29.4012,-89.0355,1.0,29.331,11111222 
WAVCIS,ioos:station:WAVCIS:CSI16:2,2009-10-02T10:15:00Z,29.4012,-89.0355,1.0,29.336,11111222 
WAVCIS,ioos:station:WAVCIS:CSI16:2,2009-10-02T10:30:00Z,29.4012,-89.0355,1.0,29.346,11111222 
WAVCIS,ioos:station:WAVCIS:CSI16:2,2009-10-02T10:45:00Z,29.4012,-89.0355,1.0,29.283,11111222 
WAVCIS,ioos:station:WAVCIS:CSI16:2,2009-10-02T11:00:00Z,29.4012,-89.0355,1.0,29.242,11111222 
WAVCIS,ioos:station:WAVCIS:CSI16:2,2009-10-02T11:15:00Z,29.4012,-89.0355,1.0,29.239,11111222 
WAVCIS,ioos:station:WAVCIS:CSI16:2,2009-10-02T11:30:00Z,29.4012,-89.0355,1.0,29.243,11111222 
WAVCIS,ioos:station:WAVCIS:CSI16:2,2009-10-02T11:45:00Z,29.4012,-89.0355,1.0,29.245,11111222 
WAVCIS,ioos:station:WAVCIS:CSI16:2,2009-10-02T12:00:00Z,29.4012,-89.0355,1.0,29.26,11111222 
WAVCIS,ioos:station:WAVCIS:CSI16:2,2009-10-02T12:15:00Z,29.4012,-89.0355,1.0,29.271,11111222 
WAVCIS,ioos:station:WAVCIS:CSI16:2,2009-10-02T12:30:00Z,29.4012,-89.0355,1.0,29.503,11111222 
WAVCIS,ioos:station:WAVCIS:CSI16:2,2009-10-02T12:45:00Z,29.4012,-89.0355,1.0,29.688,11111222 
WAVCIS,ioos:station:WAVCIS:CSI16:2,2009-10-02T13:00:00Z,29.4012,-89.0355,1.0,29.503,11111222 
WAVCIS,ioos:station:WAVCIS:CSI16:2,2009-10-02T13:15:00Z,29.4012,-89.0355,1.0,29.884,11111222 
WAVCIS,ioos:station:WAVCIS:CSI16:2,2009-10-02T13:30:00Z,29.4012,-89.0355,1.0,30.177,11111222 
WAVCIS,ioos:station:WAVCIS:CSI16:2,2009-10-02T13:45:00Z,29.4012,-89.0355,1.0,30.23,11111222 
WAVCIS,ioos:station:WAVCIS:CSI16:2,2009-10-02T14:00:00Z,29.4012,-89.0355,1.0,30.312,11111222 
WAVCIS,ioos:station:WAVCIS:CSI16:2,2009-10-02T14:15:00Z,29.4012,-89.0355,1.0,30.696,11111222 
WAVCIS,ioos:station:WAVCIS:CSI16:2,2009-10-02T14:30:00Z,29.4012,-89.0355,1.0,30.533,11111222 
WAVCIS,ioos:station:WAVCIS:CSI16:2,2009-10-02T14:45:00Z,29.4012,-89.0355,1.0,30.29,11111222 
WAVCIS,ioos:station:WAVCIS:CSI16:2,2009-10-02T15:00:00Z,29.4012,-89.0355,1.0,30.194,11111222 
WAVCIS,ioos:station:WAVCIS:CSI16:2,2009-10-02T15:15:00Z,29.4012,-89.0355,1.0,30.268,11111222 
WAVCIS,ioos:station:WAVCIS:CSI16:2,2009-10-02T15:30:00Z,29.4012,-89.0355,1.0,30.429,11111222 
WAVCIS,ioos:station:WAVCIS:CSI16:2,2009-10-02T15:45:00Z,29.4012,-89.0355,1.0,30.155,11111222 
WAVCIS,ioos:station:WAVCIS:CSI16:2,2009-10-02T16:00:00Z,29.4012,-89.0355,1.0,30.29,11111222 
WAVCIS,ioos:station:WAVCIS:CSI16:2,2009-10-02T16:15:00Z,29.4012,-89.0355,1.0,30.384,11111222 
WAVCIS,ioos:station:WAVCIS:CSI16:2,2009-10-02T16:30:00Z,29.4012,-89.0355,1.0,30.491,11111222 
WAVCIS,ioos:station:WAVCIS:CSI16:2,2009-10-02T16:45:00Z,29.4012,-89.0355,1.0,29.995,11111222 
WAVCIS,ioos:station:WAVCIS:CSI16:2,2009-10-02T17:00:00Z,29.4012,-89.0355,1.0,30.448,11111222 
WAVCIS,ioos:station:WAVCIS:CSI16:2,2009-10-02T17:15:00Z,29.4012,-89.0355,1.0,30.633,11111222 
WAVCIS,ioos:station:WAVCIS:CSI16:2,2009-10-02T17:30:00Z,29.4012,-89.0355,1.0,30.456,11111222 
WAVCIS,ioos:station:WAVCIS:CSI16:2,2009-10-02T17:45:00Z,29.4012,-89.0355,1.0,30.633,11111222 
WAVCIS,ioos:station:WAVCIS:CSI16:2,2009-10-02T18:00:00Z,29.4012,-89.0355,1.0,30.615,11111222 
WAVCIS,ioos:station:WAVCIS:CSI16:2,2009-10-02T18:15:00Z,29.4012,-89.0355,1.0,30.571,11111222 
WAVCIS,ioos:station:WAVCIS:CSI16:2,2009-10-02T18:30:00Z,29.4012,-89.0355,1.0,30.393,11111222 
WAVCIS,ioos:station:WAVCIS:CSI16:2,2009-10-02T18:45:00Z,29.4012,-89.0355,1.0,30.376,11111222 
WAVCIS,ioos:station:WAVCIS:CSI16:2,2009-10-02T19:00:00Z,29.4012,-89.0355,1.0,30.254,11111222 
WAVCIS,ioos:station:WAVCIS:CSI16:2,2009-10-02T19:15:00Z,29.4012,-89.0355,1.0,30.135,11111222 
WAVCIS,ioos:station:WAVCIS:CSI16:2,2009-10-02T19:30:00Z,29.4012,-89.0355,1.0,30.701,11111222 
WAVCIS,ioos:station:WAVCIS:CSI16:2,2009-10-02T19:45:00Z,29.4012,-89.0355,1.0,30.482,11111222 
WAVCIS,ioos:station:WAVCIS:CSI16:2,2009-10-02T20:00:00Z,29.4012,-89.0355,1.0,30.42,11111222 
WAVCIS,ioos:station:WAVCIS:CSI16:2,2009-10-02T20:15:00Z,29.4012,-89.0355,1.0,30.548,11111222 
WAVCIS,ioos:station:WAVCIS:CSI16:2,2009-10-02T20:30:00Z,29.4012,-89.0355,1.0,30.201,11111222 
WAVCIS,ioos:station:WAVCIS:CSI16:2,2009-10-02T20:45:00Z,29.4012,-89.0355,1.0,29.872,11111222 
WAVCIS,ioos:station:WAVCIS:CSI16:2,2009-10-02T21:00:00Z,29.4012,-89.0355,1.0,29.837,11111222 
WAVCIS,ioos:station:WAVCIS:CSI16:2,2009-10-02T21:15:00Z,29.4012,-89.0355,1.0,30.036,11111222 
WAVCIS,ioos:station:WAVCIS:CSI16:2,2009-10-02T21:30:00Z,29.4012,-89.0355,1.0,30.036,11111222 
WAVCIS,ioos:station:WAVCIS:CSI16:2,2009-10-02T21:45:00Z,29.4012,-89.0355,1.0,30.244,11111222 
WAVCIS,ioos:station:WAVCIS:CSI16:2,2009-10-02T22:00:00Z,29.4012,-89.0355,1.0,30.227,11111222 
WAVCIS,ioos:station:WAVCIS:CSI16:2,2009-10-02T22:15:00Z,29.4012,-89.0355,1.0,30.133,11111222 
WAVCIS,ioos:station:WAVCIS:CSI16:2,2009-10-02T22:30:00Z,29.4012,-89.0355,1.0,30.095,11111222 
WAVCIS,ioos:station:WAVCIS:CSI16:2,2009-10-02T22:45:00Z,29.4012,-89.0355,1.0,30.051,11111222 
WAVCIS,ioos:station:WAVCIS:CSI16:2,2009-10-02T23:00:00Z,29.4012,-89.0355,1.0,30.24,11111222 
WAVCIS,ioos:station:WAVCIS:CSI16:2,2009-10-02T23:15:00Z,29.4012,-89.0355,1.0,30.176,11111222 
WAVCIS,ioos:station:WAVCIS:CSI16:2,2009-10-02T23:30:00Z,29.4012,-89.0355,1.0,30.119,11111222 
WAVCIS,ioos:station:WAVCIS:CSI16:2,2009-10-02T23:45:00Z,29.4012,-89.0355,1.0,30.091,11111222 
WAVCIS,ioos:station:WAVCIS:CSI16:2,2009-10-03T00:00:00Z,29.4012,-89.0355,1.0,30.049,11111222 
WAVCIS,ioos:station:WAVCIS:CSI16:2,2009-10-03T00:15:00Z,29.4012,-89.0355,1.0,29.972,11111222 
WAVCIS,ioos:station:WAVCIS:CSI16:2,2009-10-03T00:30:00Z,29.4012,-89.0355,1.0,29.912,11111222 
WAVCIS,ioos:station:WAVCIS:CSI16:2,2009-10-03T00:45:00Z,29.4012,-89.0355,1.0,30.081,11111222 
WAVCIS,ioos:station:WAVCIS:CSI16:2,2009-10-03T01:00:00Z,29.4012,-89.0355,1.0,30.166,11111222 
WAVCIS,ioos:station:WAVCIS:CSI16:2,2009-10-03T01:15:00Z,29.4012,-89.0355,1.0,30.124,11111222 
WAVCIS,ioos:station:WAVCIS:CSI16:2,2009-10-03T01:30:00Z,29.4012,-89.0355,1.0,29.978,11111222 
WAVCIS,ioos:station:WAVCIS:CSI16:2,2009-10-03T01:45:00Z,29.4012,-89.0355,1.0,30.036,11111222 
WAVCIS,ioos:station:WAVCIS:CSI16:2,2009-10-03T02:00:00Z,29.4012,-89.0355,1.0,29.95,11111222 
WAVCIS,ioos:station:WAVCIS:CSI16:2,2009-10-03T02:15:00Z,29.4012,-89.0355,1.0,29.894,11111222 
WAVCIS,ioos:station:WAVCIS:CSI16:2,2009-10-03T02:30:00Z,29.4012,-89.0355,1.0,29.855,11111222 
WAVCIS,ioos:station:WAVCIS:CSI16:2,2009-10-03T02:45:00Z,29.4012,-89.0355,1.0,29.806,11111222 
WAVCIS,ioos:station:WAVCIS:CSI16:2,2009-10-03T03:00:00Z,29.4012,-89.0355,1.0,29.782,11111222 
WAVCIS,ioos:station:WAVCIS:CSI16:2,2009-10-03T03:15:00Z,29.4012,-89.0355,1.0,29.786,11111222 
WAVCIS,ioos:station:WAVCIS:CSI16:2,2009-10-03T03:30:00Z,29.4012,-89.0355,1.0,29.747,11111222 
WAVCIS,ioos:station:WAVCIS:CSI16:2,2009-10-03T03:45:00Z,29.4012,-89.0355,1.0,29.703,11111222 
WAVCIS,ioos:station:WAVCIS:CSI16:2,2009-10-03T04:00:00Z,29.4012,-89.0355,1.0,29.661,11111222 
WAVCIS,ioos:station:WAVCIS:CSI16:2,2009-10-03T04:15:00Z,29.4012,-89.0355,1.0,29.587,11111222 
WAVCIS,ioos:station:WAVCIS:CSI16:2,2009-10-03T04:30:00Z,29.4012,-89.0355,1.0,29.546,11111222 
WAVCIS,ioos:station:WAVCIS:CSI16:2,2009-10-03T04:45:00Z,29.4012,-89.0355,1.0,29.522,11111222 
WAVCIS,ioos:station:WAVCIS:CSI16:2,2009-10-03T05:00:00Z,29.4012,-89.0355,1.0,29.392,11111222 
WAVCIS,ioos:station:WAVCIS:CSI16:2,2009-10-03T05:15:00Z,29.4012,-89.0355,1.0,29.364,11111222 
WAVCIS,ioos:station:WAVCIS:CSI16:2,2009-10-03T05:30:00Z,29.4012,-89.0355,1.0,29.328,11111222 
WAVCIS,ioos:station:WAVCIS:CSI16:2,2009-10-03T05:45:00Z,29.4012,-89.0355,1.0,29.326,11111222 
WAVCIS,ioos:station:WAVCIS:CSI16:2,2009-10-03T06:00:00Z,29.4012,-89.0355,1.0,29.321,11111222 
WAVCIS,ioos:station:WAVCIS:CSI16:2,2009-10-03T06:15:00Z,29.4012,-89.0355,1.0,29.387,11111222 
WAVCIS,ioos:station:WAVCIS:CSI16:2,2009-10-03T06:30:00Z,29.4012,-89.0355,1.0,29.323,11111222 
WAVCIS,ioos:station:WAVCIS:CSI16:2,2009-10-03T06:45:00Z,29.4012,-89.0355,1.0,29.307,11111222 
WAVCIS,ioos:station:WAVCIS:CSI16:2,2009-10-03T07:00:00Z,29.4012,-89.0355,1.0,29.269,11111222 
WAVCIS,ioos:station:WAVCIS:CSI16:2,2009-10-03T07:15:00Z,29.4012,-89.0355,1.0,29.294,11111222 
WAVCIS,ioos:station:WAVCIS:CSI16:2,2009-10-03T07:30:00Z,29.4012,-89.0355,1.0,29.297,11111222 
WAVCIS,ioos:station:WAVCIS:CSI16:2,2009-10-03T07:45:00Z,29.4012,-89.0355,1.0,29.237,11111222 
WAVCIS,ioos:station:WAVCIS:CSI16:2,2009-10-03T08:00:00Z,29.4012,-89.0355,1.0,29.188,11111222 
WAVCIS,ioos:station:WAVCIS:CSI16:2,2009-10-03T08:15:00Z,29.4012,-89.0355,1.0,29.181,11111222 
WAVCIS,ioos:station:WAVCIS:CSI16:2,2009-10-03T08:30:00Z,29.4012,-89.0355,1.0,29.192,11111222 
WAVCIS,ioos:station:WAVCIS:CSI16:2,2009-10-03T08:45:00Z,29.4012,-89.0355,1.0,29.137,11111222 
WAVCIS,ioos:station:WAVCIS:CSI16:2,2009-10-03T09:00:00Z,29.4012,-89.0355,1.0,29.117,11111222 
WAVCIS,ioos:station:WAVCIS:CSI16:2,2009-10-03T09:15:00Z,29.4012,-89.0355,1.0,29.147,11111222 
WAVCIS,ioos:station:WAVCIS:CSI16:2,2009-10-03T09:30:00Z,29.4012,-89.0355,1.0,29.199,11111222 
WAVCIS,ioos:station:WAVCIS:CSI16:2,2009-10-03T09:45:00Z,29.4012,-89.0355,1.0,29.261,11111222 
WAVCIS,ioos:station:WAVCIS:CSI16:2,2009-10-03T10:00:00Z,29.4012,-89.0355,1.0,29.219,11111222 
WAVCIS,ioos:station:WAVCIS:CSI16:2,2009-10-03T10:15:00Z,29.4012,-89.0355,1.0,29.498,11111222 
WAVCIS,ioos:station:WAVCIS:CSI16:2,2009-10-03T10:30:00Z,29.4012,-89.0355,1.0,29.918,11111222 
WAVCIS,ioos:station:WAVCIS:CSI16:2,2009-10-03T10:45:00Z,29.4012,-89.0355,1.0,31.038,11111222 
WAVCIS,ioos:station:WAVCIS:CSI16:2,2009-10-03T11:00:00Z,29.4012,-89.0355,1.0,30.399,11111222 
WAVCIS,ioos:station:WAVCIS:CSI16:2,2009-10-03T11:15:00Z,29.4012,-89.0355,1.0,30.649,11111222 
WAVCIS,ioos:station:WAVCIS:CSI16:2,2009-10-03T11:30:00Z,29.4012,-89.0355,1.0,31.205,11111222 
WAVCIS,ioos:station:WAVCIS:CSI16:2,2009-10-03T11:45:00Z,29.4012,-89.0355,1.0,31.258,11111222 
WAVCIS,ioos:station:WAVCIS:CSI16:2,2009-10-03T12:00:00Z,29.4012,-89.0355,1.0,31.345,11111222 
WAVCIS,ioos:station:WAVCIS:CSI16:2,2009-10-03T12:15:00Z,29.4012,-89.0355,1.0,31.383,11111222 
WAVCIS,ioos:station:WAVCIS:CSI16:2,2009-10-03T12:30:00Z,29.4012,-89.0355,1.0,31.524,11111222 
WAVCIS,ioos:station:WAVCIS:CSI16:2,2009-10-03T12:45:00Z,29.4012,-89.0355,1.0,31.298,11111222 
WAVCIS,ioos:station:WAVCIS:CSI16:2,2009-10-03T13:00:00Z,29.4012,-89.0355,1.0,31.112,11111222 
WAVCIS,ioos:station:WAVCIS:CSI16:2,2009-10-03T13:15:00Z,29.4012,-89.0355,1.0,31.24,11111222 
WAVCIS,ioos:station:WAVCIS:CSI16:2,2009-10-03T13:30:00Z,29.4012,-89.0355,1.0,31.391,11111222 
WAVCIS,ioos:station:WAVCIS:CSI16:2,2009-10-03T13:45:00Z,29.4012,-89.0355,1.0,31.548,11111222 
WAVCIS,ioos:station:WAVCIS:CSI16:2,2009-10-03T14:00:00Z,29.4012,-89.0355,1.0,31.647,11111222 
WAVCIS,ioos:station:WAVCIS:CSI16:2,2009-10-03T14:15:00Z,29.4012,-89.0355,1.0,31.623,11111222 
WAVCIS,ioos:station:WAVCIS:CSI16:2,2009-10-03T14:30:00Z,29.4012,-89.0355,1.0,31.533,11111222 
WAVCIS,ioos:station:WAVCIS:CSI16:2,2009-10-03T14:45:00Z,29.4012,-89.0355,1.0,31.412,11111222 
WAVCIS,ioos:station:WAVCIS:CSI16:2,2009-10-03T15:00:00Z,29.4012,-89.0355,1.0,31.396,11111222 
WAVCIS,ioos:station:WAVCIS:CSI16:2,2009-10-03T15:15:00Z,29.4012,-89.0355,1.0,31.361,11111222 